Fort Polk, LA

8:43 AM CST on November 19, 2017 (GMT -0600)
Polk Army Air Field

Weather History for KPOE - October, 2011

Change the Weather History Date:

Saturday, October 29, 2011

  Actual Average Record
Temperature  
Mean Temperature 52 °F -  
Max Temperature 66 °F 72 °F 86 °F (2004)
Min Temperature 39 °F 53 °F 32 °F (2017)
Degree Days  
Heating Degree Days 12    
Growing Degree Days 2 (Base 50)    
Moisture  
Dew Point 39 °F    
Average Humidity 71    
Maximum Humidity 100    
Minimum Humidity 30    
Precipitation  
Precipitation 0.00 in - - ()
Sea Level Pressure  
Sea Level Pressure 30.22 in    
Wind  
Wind Speed 5 mph (North)    
Max Wind Speed 10 mph    
Max Gust Speed 16 mph    
Visibility 10 miles    
Events      
Averages and records for this station are not official NWS values.
T = Trace of Precipitation, MM = Missing Value Source: NWS Daily Summary

Daily Weather History Graph

Daily Weather History Graph

Search for Another Location

Airport or City:

Trip Planner

Search our weather history database for the weather conditions in past years. The results will help you decide how hot, cold, wet, or windy it might be!

Date:

Astronomy

Oct. 29, 2011 Rise Set
Actual Time 7:25 AM CDT 6:27 PM CDT
Civil Twilight 7:00 AM CDT 6:51 PM CDT
Nautical Twilight 6:32 AM CDT 7:20 PM CDT
Astronomical Twilight 6:03 AM CDT 7:48 PM CDT
Moon 10:35 AM CDT (10/29) 9:03 PM CDT (10/29)
Length of Visible Light 11h 51m
Length of Day
11h 01m
Waxing Crescent, 12% of the Moon is Illuminated
Oct 29
Waxing Crescent
Nov 2
First Quarter
Nov 10
Full
Nov 18
Last Quarter
Nov 25
New

Hourly Weather History & Observations

Time (CDT) Temp. Windchill Dew Point Humidity Pressure Visibility Wind Dir Wind Speed Gust Speed Precip Events Conditions
12:55 AM 44.1 °F 40.1 °F 42.1 °F 93% 30.24 in 10.0 mi NNW 6.9 mph - N/A   Clear
1:55 AM 43.0 °F 40.3 °F 42.1 °F 97% 30.23 in 10.0 mi NNW 4.6 mph - N/A   Clear
2:55 AM 42.1 °F 39.2 °F 41.0 °F 96% 30.23 in 10.0 mi North 4.6 mph - N/A   Clear
3:55 AM 42.1 °F 39.2 °F 39.9 °F 92% 30.23 in 10.0 mi NNW 4.6 mph - N/A   Clear
4:55 AM 42.1 °F - 39.9 °F 92% 30.24 in 10.0 mi Calm Calm - N/A   Clear
5:55 AM 39.9 °F - 39.0 °F 97% 30.25 in 10.0 mi Calm Calm - N/A   Clear
6:55 AM 39.0 °F 35.7 °F 39.0 °F 100% 30.26 in 10.0 mi NNW 4.6 mph - N/A   Clear
7:55 AM 41.0 °F 38.0 °F 39.0 °F 93% 30.29 in 10.0 mi NNW 4.6 mph - N/A   Clear
8:55 AM 45.0 °F 41.2 °F 41.0 °F 86% 30.30 in 10.0 mi NNW 6.9 mph - N/A   Clear
9:55 AM 52.0 °F - 41.0 °F 66% 30.30 in 10.0 mi NNE 4.6 mph - N/A   Clear
10:55 AM 57.0 °F - 41.0 °F 55% 30.30 in 10.0 mi NNW 8.1 mph - N/A   Clear
11:55 AM 61.0 °F - 37.9 °F 42% 30.28 in 10.0 mi NE 6.9 mph - N/A   Clear
12:55 PM 64.0 °F - 35.1 °F 34% 30.25 in 10.0 mi ENE 5.8 mph - N/A   Clear
1:55 PM 64.9 °F - 33.1 °F 31% 30.21 in 10.0 mi NE 10.4 mph - N/A   Clear
2:55 PM 64.9 °F - 33.1 °F 31% 30.18 in 10.0 mi NNE 6.9 mph 16.1 mph N/A   Clear
3:55 PM 66.0 °F - 34.0 °F 30% 30.17 in 10.0 mi NNW 6.9 mph - N/A   Clear
4:55 PM 64.9 °F - 35.1 °F 33% 30.15 in 10.0 mi Variable 4.6 mph - N/A   Clear
5:55 PM 62.1 °F - 37.9 °F 41% 30.16 in 10.0 mi North 3.5 mph - N/A   Clear
6:55 PM 55.0 °F - 43.0 °F 64% 30.16 in 10.0 mi Calm Calm - N/A   Clear
7:55 PM 51.1 °F - 44.1 °F 77% 30.16 in 10.0 mi Calm Calm - N/A   Clear
8:55 PM 46.9 °F - 42.1 °F 83% 30.17 in 10.0 mi Calm Calm - N/A   Clear
9:55 PM 46.0 °F - 43.0 °F 89% 30.17 in 10.0 mi Calm Calm - N/A   Clear
10:55 PM 44.1 °F - 42.1 °F 93% 30.18 in 10.0 mi Calm Calm - N/A   Clear
11:55 PM 44.1 °F - 42.1 °F 93% 30.17 in 10.0 mi Calm Calm - N/A   Clear